Temp
60 60 60 60 60 59 59 59 58 58 58 58 57 56 56 56 56 56 56 57 57 57 56 57 59 59 60 59 59 59 59 59 59 59 60 60 59 59 58 57 57 57 57 57 56 56 55 54 53 52 51 49
58 58 58 58 58 58 57 57 57 56 56 55 54 53 52 52 52 53 53 54 54 55 54 54 56 57 58 58 57 57 57 58 58 58 58 58 57 56 56 56 55 55 56 56 55 55 54 53 52 51 49 48
56 56 56 56 55 55 55 55 54 54 53 52 52 51 49 48 48 49 50 50 51 52 52 52 53 55 56 56 55 55 55 56 56 56 56 56 55 54 54 53 53 53 54 54 54 53 52 51 49 48 47 47
49 52 53 53 52 52 51 51 50 50 50 49 48 47 47 45 44 45 46 47 47 48 49 49 50 52 54 54 53 53 53 54 54 54 54 54 53 52 51 50 49 50 51 52 52 51 50 49 47 45 46 45
47 47 46 48 49 48 48 48 47 46 45 45 45 44 44 43 43 43 43 44 44 45 45 47 47 48 50 51 51 50 50 51 52 52 52 52 51 50 48 47 45 46 47 48 49 48 47 46 45 44 43 44
43 44 44 44 44 45 44 44 43 43 42 42 42 42 42 42 43 42 43 43 42 43 43 44 45 45 47 48 48 48 47 47 49 49 50 49 49 48 46 44 42 42 43 44 46 45 44 43 44 43 43 43
43 43 43 42 42 42 43 42 41 41 41 41 41 41 41 42 41 41 42 42 41 40 41 42 43 43 44 44 45 44 43 44 45 46 46 46 45 45 43 41 41 42 42 42 42 42 42 43 42 42 43 43
43 43 43 42 42 42 41 41 40 40 40 40 40 40 41 41 40 39 40 39 39 39 39 39 39 40 39 39 41 41 39 40 41 41 41 42 42 40 40 40 40 41 41 41 42 42 42 42 41 41 42 42
42 42 42 41 41 40 40 40 40 40 39 39 39 39 40 39 39 38 39 38 38 38 38 38 38 38 38 38 37 38 37 38 38 38 37 38 39 39 38 38 39 39 39 40 40 40 41 40 41 41 42 42
42 41 41 41 40 40 39 39 39 39 39 38 38 39 39 39 38 38 37 37 37 37 37 37 37 37 37 36 36 37 36 37 37 37 37 37 37 38 38 38 38 38 38 38 38 39 39 39 39 40 40 41
40 40 41 41 40 39 38 38 38 37 38 37 37 37 38 37 37 37 36 36 36 35 36 36 36 36 36 35 36 37 36 35 36 36 36 36 36 37 37 37 37 38 37 37 37 37 37 38 38 39 39 40
39 39 39 40 39 39 38 37 37 37 37 36 37 37 38 37 36 36 35 35 35 35 35 35 35 35 35 35 35 36 36 34 35 35 35 35 35 36 36 36 36 37 37 37 37 36 37 37 38 38 38 39
38 38 38 38 38 38 38 36 36 36 36 36 36 36 36 37 35 35 35 34 34 35 34 34 34 34 34 34 34 34 34 34 33 34 34 34 34 35 34 35 35 36 36 37 37 36 36 36 37 37 37 38
36 37 36 36 36 37 37 36 36 35 35 36 35 35 35 36 35 34 34 34 34 33 33 33 33 33 33 33 34 33 33 34 33 33 33 33 33 33 33 34 34 35 35 35 35 36 35 35 36 37 37 37
36 36 36 35 36 36 35 35 35 35 35 35 35 35 34 34 35 34 34 34 33 33 33 33 32 32 33 32 33 33 32 33 32 32 32 32 32 32 33 33 34 33 34 34 34 35 34 35 36 36 37 37
35 35 35 35 35 35 35 35 34 34 35 34 34 34 33 34 34 34 33 33 33 33 32 32 32 32 31 31 32 32 32 31 32 31 31 31 32 31 33 32 33 33 33 33 34 34 34 35 34 35 36 36
34 35 34 35 35 35 34 35 34 34 34 34 34 34 33 33 33 33 32 32 32 32 32 31 30 30 30 31 31 31 31 30 31 31 31 31 32 31 32 31 31 32 32 32 32 33 33 34 34 35 35 35
34 34 35 35 35 35 34 34 34 34 34 34 33 33 32 32 32 31 32 31 31 31 31 30 30 29 29 30 30 30 31 30 30 29 29 29 30 30 30 29 30 30 30 31 32 31 32 33 33 34 34 35
34 34 34 34 33 34 34 33 33 33 33 32 33 32 32 32 31 31 30 31 31 30 30 30 29 29 29 29 30 29 30 29 29 29 28 29 27 29 28 29 29 29 29 29 29 30 32 31 33 33 34 35
33 33 34 34 33 33 32 33 32 33 32 32 32 32 31 31 31 30 30 30 30 30 29 29 28 28 29 28 29 29 29 29 28 28 27 28 28 26 26 27 27 29 28 28 28 29 30 31 32 32 33 34
32 32 33 33 33 32 32 32 32 32 32 32 31 31 31 31 31 29 29 30 29 30 29 28 28 28 27 28 28 28 28 27 28 27 26 26 27 27 25 26 26 27 27 27 27 28 29 30 31 32 33 34
32 32 32 32 33 33 31 31 32 32 31 31 31 30 30 30 30 29 29 29 29 29 29 28 27 27 27 27 27 27 27 26 27 26 26 24 26 26 25 25 25 25 26 26 26 27 28 30 31 32 33 34
31 31 31 31 31 31 31 31 31 31 31 30 30 30 29 29 30 29 28 28 28 28 28 27 27 27 26 27 26 26 26 26 26 25 25 24 24 26 25 25 25 24 25 24 25 26 28 30 31 32 33 34
31 31 32 31 31 31 31 31 31 31 30 31 31 30 30 29 29 29 29 28 28 28 27 26 26 26 26 26 26 25 24 24 24 23 23 23 23 23 24 26 25 25 24 24 25 26 29 30 30 31 32 33
30 31 29 29 30 31 31 31 31 31 30 30 30 29 29 29 29 28 29 28 28 27 27 26 26 25 25 25 25 25 24 24 23 24 23 23 23 22 21 23 25 23 24 22 25 27 26 28 32 32 33 32
31 31 31 31 30 30 30 30 30 29 29 29 29 29 29 29 28 28 28 28 28 27 26 26 25 25 24 24 25 24 24 23 23 22 22 22 21 24 21 20 24 22 24 20 20 20 23 27 32 32 32 31
31 31 30 30 30 30 29 30 31 30 30 30 29 29 28 28 28 27 27 27 27 26 26 25 25 25 24 24 24 23 23 22 21 22 21 21 20 20 22 21 23 21 23 17 21 21 22 21 25 29 29 30
30 30 30 29 29 29 30 29 29 29 29 28 28 27 28 28 28 27 27 27 27 27 26 25 25 25 24 24 24 23 22 22 21 21 21 21 20 20 18 21 19 23 21 21 20 14 19 17 21 16 25 22
30 30 28 28 27 28 27 28 28 27 27 28 28 28 27 27 27 27 27 26 27 27 25 25 25 24 24 23 23 24 22 22 21 21 21 21 19 19 18 17 19 19 22 19 23 18 16 14 15 15 18 20
30 29 28 27 26 26 26 26 26 25 26 27 26 27 29 28 27 27 26 26 26 26 26 25 24 24 24 23 24 24 23 22 21 20 20 21 20 18 19 18 17 16 21 20 20 21 21 20 12 13 15 18
29 28 28 27 28 29 28 28 28 29 29 28 28 28 27 27 27 27 26 26 26 26 26 25 25 24 24 24 23 24 22 21 21 21 20 21 20 19 20 19 15 15 16 19 19 20 19 19 20 19 15 9
MSLP
1030.38 1030.46 1030.54 1030.66 1030.74 1030.86 1031.02 1031.14 1031.26 1031.34 1031.38 1031.42 1031.50 1031.58 1031.62 1031.66 1031.62 1031.58 1031.54 1031.50 1031.46 1031.42 1031.38 1031.22 1030.98 1030.86 1030.74 1030.78 1030.82 1030.74 1030.62 1030.54 1030.46 1030.38 1030.26 1030.14 1030.14 1030.18 1030.22 1030.14 1030.10 1030.06 1029.94 1029.90 1029.90 1029.90 1029.90 1029.94 1030.02 1030.06 1030.06 1030.14
1030.74 1030.78 1030.86 1030.98 1031.10 1031.26 1031.38 1031.50 1031.62 1031.70 1031.78 1031.86 1031.94 1032.02 1032.10 1032.14 1032.10 1032.02 1031.98 1031.90 1031.86 1031.78 1031.78 1031.70 1031.50 1031.30 1031.18 1031.14 1031.14 1031.06 1030.98 1030.86 1030.74 1030.66 1030.62 1030.58 1030.58 1030.58 1030.54 1030.46 1030.38 1030.34 1030.18 1030.10 1030.06 1030.06 1030.06 1030.10 1030.18 1030.18 1030.22 1030.22
1031.18 1031.18 1031.30 1031.42 1031.58 1031.74 1031.86 1031.98 1032.06 1032.14 1032.22 1032.34 1032.38 1032.50 1032.54 1032.58 1032.58 1032.54 1032.46 1032.42 1032.30 1032.26 1032.18 1032.14 1031.98 1031.74 1031.58 1031.50 1031.46 1031.38 1031.26 1031.14 1031.06 1030.98 1030.94 1030.90 1030.90 1030.86 1030.86 1030.82 1030.74 1030.66 1030.50 1030.38 1030.30 1030.26 1030.26 1030.30 1030.34 1030.34 1030.30 1030.34
1031.74 1031.86 1031.86 1031.94 1032.10 1032.26 1032.38 1032.50 1032.58 1032.66 1032.70 1032.78 1032.86 1032.90 1032.94 1032.98 1032.98 1032.98 1032.98 1032.90 1032.82 1032.74 1032.62 1032.58 1032.42 1032.22 1031.98 1031.90 1031.82 1031.78 1031.66 1031.50 1031.34 1031.26 1031.18 1031.18 1031.18 1031.18 1031.18 1031.18 1031.18 1031.06 1030.86 1030.74 1030.62 1030.54 1030.50 1030.50 1030.46 1030.46 1030.50 1030.50
1032.26 1032.46 1032.46 1032.50 1032.62 1032.74 1032.86 1032.98 1033.06 1033.14 1033.22 1033.26 1033.26 1033.30 1033.34 1033.26 1033.30 1033.34 1033.34 1033.26 1033.30 1033.18 1033.10 1032.94 1032.78 1032.66 1032.42 1032.26 1032.22 1032.18 1032.10 1031.94 1031.74 1031.58 1031.50 1031.46 1031.42 1031.46 1031.46 1031.50 1031.46 1031.38 1031.22 1031.10 1030.98 1030.90 1030.82 1030.70 1030.58 1030.66 1030.62 1030.58
1032.78 1032.86 1032.90 1033.02 1033.06 1033.18 1033.30 1033.42 1033.42 1033.50 1033.62 1033.62 1033.66 1033.58 1033.50 1033.54 1033.58 1033.58 1033.54 1033.54 1033.50 1033.46 1033.38 1033.26 1033.14 1032.98 1032.82 1032.62 1032.54 1032.54 1032.46 1032.34 1032.14 1032.02 1031.86 1031.78 1031.74 1031.70 1031.70 1031.66 1031.62 1031.58 1031.50 1031.38 1031.22 1031.18 1031.06 1030.94 1030.90 1030.82 1030.74 1030.62
1032.98 1033.06 1033.14 1033.30 1033.38 1033.50 1033.58 1033.70 1033.78 1033.86 1033.90 1033.94 1033.98 1033.94 1033.90 1033.90 1033.98 1033.90 1033.82 1033.86 1033.86 1033.82 1033.74 1033.58 1033.38 1033.26 1033.18 1033.02 1032.90 1032.90 1032.82 1032.70 1032.54 1032.46 1032.30 1032.14 1032.10 1032.02 1031.94 1031.86 1031.82 1031.74 1031.66 1031.50 1031.38 1031.30 1031.22 1031.22 1031.14 1031.06 1030.90 1030.74
1033.14 1033.26 1033.38 1033.54 1033.66 1033.74 1033.86 1033.94 1034.06 1034.10 1034.14 1034.18 1034.18 1034.18 1034.18 1034.22 1034.26 1034.22 1034.18 1034.18 1034.06 1033.90 1033.78 1033.74 1033.66 1033.54 1033.46 1033.34 1033.18 1033.14 1033.02 1032.94 1032.86 1032.78 1032.66 1032.54 1032.38 1032.26 1032.22 1032.18 1032.06 1031.94 1031.82 1031.66 1031.54 1031.42 1031.34 1031.34 1031.30 1031.14 1030.98 1030.90
1033.42 1033.58 1033.62 1033.86 1033.94 1034.02 1034.10 1034.18 1034.22 1034.30 1034.34 1034.42 1034.38 1034.38 1034.38 1034.46 1034.42 1034.38 1034.34 1034.34 1034.22 1034.10 1034.10 1033.98 1033.90 1033.78 1033.70 1033.66 1033.54 1033.42 1033.34 1033.22 1033.14 1032.94 1032.90 1032.74 1032.58 1032.54 1032.50 1032.38 1032.30 1032.18 1032.02 1031.90 1031.78 1031.62 1031.50 1031.42 1031.34 1031.22 1031.06 1030.94
1033.70 1033.70 1033.86 1034.02 1034.18 1034.22 1034.30 1034.38 1034.42 1034.50 1034.50 1034.54 1034.58 1034.54 1034.54 1034.54 1034.50 1034.46 1034.46 1034.42 1034.38 1034.38 1034.30 1034.22 1034.18 1034.14 1034.06 1033.98 1033.86 1033.70 1033.66 1033.58 1033.42 1033.26 1033.14 1033.02 1032.90 1032.78 1032.66 1032.58 1032.46 1032.34 1032.22 1032.10 1031.98 1031.82 1031.70 1031.54 1031.42 1031.30 1031.18 1031.02
1033.82 1033.90 1034.02 1034.10 1034.26 1034.30 1034.50 1034.50 1034.54 1034.62 1034.66 1034.74 1034.74 1034.66 1034.62 1034.58 1034.58 1034.58 1034.58 1034.58 1034.58 1034.58 1034.50 1034.46 1034.42 1034.38 1034.30 1034.22 1034.10 1034.02 1033.94 1033.86 1033.70 1033.54 1033.42 1033.30 1033.18 1033.02 1032.90 1032.70 1032.58 1032.38 1032.26 1032.14 1032.02 1031.86 1031.74 1031.62 1031.50 1031.34 1031.22 1031.10
1033.98 1034.18 1034.18 1034.22 1034.30 1034.34 1034.58 1034.58 1034.66 1034.78 1034.82 1034.86 1034.78 1034.78 1034.74 1034.70 1034.70 1034.70 1034.70 1034.74 1034.74 1034.74 1034.70 1034.70 1034.70 1034.62 1034.54 1034.46 1034.38 1034.30 1034.18 1034.10 1033.90 1033.78 1033.66 1033.50 1033.38 1033.18 1032.98 1032.82 1032.66 1032.42 1032.34 1032.18 1032.02 1031.82 1031.70 1031.58 1031.46 1031.34 1031.22 1031.10
1034.22 1034.30 1034.38 1034.42 1034.42 1034.50 1034.66 1034.74 1034.86 1034.94 1034.98 1034.94 1034.98 1034.98 1034.94 1034.90 1034.86 1034.86 1034.86 1034.90 1034.94 1034.90 1034.86 1034.86 1034.82 1034.78 1034.74 1034.70 1034.62 1034.50 1034.38 1034.30 1034.18 1034.02 1033.90 1033.70 1033.54 1033.34 1033.14 1032.90 1032.70 1032.50 1032.38 1032.22 1032.06 1031.94 1031.70 1031.54 1031.46 1031.30 1031.18 1031.02
1034.38 1034.46 1034.50 1034.58 1034.62 1034.66 1034.78 1034.90 1035.02 1035.06 1035.06 1035.10 1035.10 1035.10 1035.14 1035.06 1035.06 1035.10 1035.10 1035.10 1035.10 1035.06 1035.06 1035.02 1035.02 1034.94 1034.90 1034.82 1034.74 1034.66 1034.54 1034.42 1034.38 1034.22 1034.06 1033.90 1033.70 1033.54 1033.34 1033.10 1032.90 1032.66 1032.42 1032.26 1032.14 1031.94 1031.78 1031.58 1031.38 1031.26 1031.06 1030.94
1034.50 1034.54 1034.58 1034.74 1034.78 1034.82 1034.94 1035.02 1035.02 1035.06 1035.14 1035.18 1035.18 1035.26 1035.26 1035.22 1035.14 1035.22 1035.26 1035.22 1035.22 1035.18 1035.18 1035.18 1035.18 1035.14 1035.10 1035.02 1034.94 1034.90 1034.82 1034.66 1034.54 1034.42 1034.26 1034.10 1033.90 1033.70 1033.50 1033.30 1033.10 1032.90 1032.62 1032.38 1032.18 1032.02 1031.90 1031.70 1031.46 1031.22 1030.98 1030.78
1034.58 1034.66 1034.74 1034.86 1034.86 1034.98 1035.06 1035.10 1035.14 1035.18 1035.22 1035.26 1035.30 1035.38 1035.34 1035.30 1035.30 1035.30 1035.34 1035.34 1035.30 1035.30 1035.30 1035.30 1035.34 1035.34 1035.26 1035.22 1035.18 1035.06 1035.02 1034.90 1034.74 1034.62 1034.46 1034.30 1034.10 1033.90 1033.58 1033.42 1033.18 1032.94 1032.74 1032.54 1032.30 1032.10 1031.98 1031.74 1031.54 1031.26 1030.98 1030.78
1034.70 1034.74 1034.82 1034.86 1034.90 1034.98 1035.10 1035.10 1035.14 1035.22 1035.26 1035.34 1035.38 1035.42 1035.42 1035.42 1035.38 1035.42 1035.38 1035.38 1035.42 1035.34 1035.38 1035.42 1035.46 1035.46 1035.46 1035.42 1035.34 1035.22 1035.14 1035.02 1034.82 1034.70 1034.54 1034.34 1034.14 1033.90 1033.66 1033.50 1033.22 1032.98 1032.82 1032.58 1032.38 1032.22 1032.06 1031.82 1031.54 1031.26 1031.06 1030.78
1034.66 1034.74 1034.78 1034.86 1034.90 1035.02 1035.10 1035.14 1035.14 1035.22 1035.30 1035.34 1035.42 1035.46 1035.46 1035.46 1035.46 1035.50 1035.46 1035.42 1035.42 1035.42 1035.42 1035.50 1035.54 1035.58 1035.54 1035.50 1035.42 1035.34 1035.18 1035.06 1034.90 1034.86 1034.70 1034.46 1034.26 1034.02 1033.82 1033.58 1033.34 1033.06 1032.86 1032.62 1032.46 1032.30 1032.06 1031.82 1031.54 1031.26 1031.02 1030.70
1034.62 1034.74 1034.78 1034.86 1034.94 1035.02 1035.02 1035.14 1035.18 1035.26 1035.34 1035.38 1035.42 1035.46 1035.50 1035.50 1035.50 1035.54 1035.54 1035.50 1035.46 1035.46 1035.50 1035.54 1035.58 1035.62 1035.62 1035.58 1035.50 1035.38 1035.26 1035.18 1035.06 1034.98 1034.90 1034.62 1034.50 1034.22 1034.02 1033.78 1033.58 1033.22 1033.02 1032.78 1032.58 1032.34 1032.06 1031.78 1031.46 1031.18 1030.94 1030.58
1034.62 1034.70 1034.74 1034.78 1034.86 1034.94 1035.06 1035.06 1035.14 1035.18 1035.26 1035.34 1035.38 1035.42 1035.46 1035.50 1035.50 1035.58 1035.58 1035.54 1035.50 1035.50 1035.54 1035.58 1035.62 1035.66 1035.66 1035.62 1035.50 1035.42 1035.38 1035.26 1035.14 1035.10 1034.98 1034.82 1034.66 1034.42 1034.18 1033.90 1033.70 1033.34 1033.18 1032.86 1032.62 1032.34 1032.06 1031.74 1031.42 1031.10 1030.74 1030.46
1034.66 1034.70 1034.74 1034.78 1034.86 1034.98 1035.02 1035.06 1035.06 1035.14 1035.22 1035.26 1035.34 1035.38 1035.42 1035.46 1035.50 1035.58 1035.58 1035.54 1035.54 1035.50 1035.62 1035.62 1035.66 1035.70 1035.70 1035.62 1035.54 1035.46 1035.38 1035.30 1035.22 1035.22 1035.10 1034.98 1034.74 1034.66 1034.46 1034.06 1033.78 1033.46 1033.26 1032.98 1032.66 1032.26 1031.98 1031.62 1031.30 1030.94 1030.54 1030.26
1034.58 1034.66 1034.74 1034.78 1034.78 1034.82 1034.94 1034.98 1034.98 1035.06 1035.10 1035.22 1035.30 1035.34 1035.42 1035.46 1035.42 1035.54 1035.58 1035.58 1035.54 1035.54 1035.58 1035.70 1035.70 1035.70 1035.70 1035.62 1035.54 1035.50 1035.42 1035.38 1035.30 1035.26 1035.18 1035.06 1034.82 1034.70 1034.54 1034.14 1033.90 1033.66 1033.30 1033.06 1032.62 1032.18 1031.82 1031.46 1031.10 1030.66 1030.30 1030.14
1034.58 1034.66 1034.70 1034.74 1034.74 1034.74 1034.78 1034.86 1034.90 1034.94 1035.02 1035.10 1035.18 1035.26 1035.34 1035.34 1035.38 1035.46 1035.54 1035.58 1035.54 1035.58 1035.62 1035.66 1035.70 1035.70 1035.70 1035.62 1035.58 1035.50 1035.42 1035.38 1035.34 1035.34 1035.30 1035.22 1034.94 1034.78 1034.66 1034.38 1034.22 1033.98 1033.54 1033.14 1032.58 1032.06 1031.66 1031.26 1030.82 1030.34 1030.18 1030.10
1034.38 1034.38 1034.30 1034.38 1034.50 1034.50 1034.54 1034.66 1034.66 1034.82 1034.86 1034.94 1034.94 1035.06 1035.14 1035.22 1035.30 1035.34 1035.42 1035.50 1035.54 1035.54 1035.58 1035.66 1035.70 1035.74 1035.70 1035.62 1035.58 1035.54 1035.50 1035.46 1035.38 1035.46 1035.34 1035.26 1035.02 1034.86 1034.66 1034.46 1034.26 1034.06 1033.58 1033.06 1032.38 1031.78 1031.34 1031.10 1030.54 1030.18 1030.06 1029.98
1033.94 1033.94 1034.34 1034.50 1034.38 1034.18 1034.38 1034.42 1034.54 1034.62 1034.74 1034.82 1034.86 1034.98 1035.06 1035.14 1035.18 1035.26 1035.30 1035.38 1035.42 1035.50 1035.50 1035.62 1035.70 1035.70 1035.70 1035.66 1035.62 1035.58 1035.62 1035.58 1035.58 1035.54 1035.50 1035.34 1035.18 1034.90 1034.82 1034.50 1034.18 1034.26 1033.66 1033.10 1031.66 1031.42 1031.26 1030.82 1030.10 1029.90 1029.86 1030.02
1033.54 1033.46 1033.42 1033.42 1033.70 1033.98 1034.14 1034.22 1034.30 1034.50 1034.62 1034.74 1034.82 1034.90 1034.94 1034.98 1035.06 1035.14 1035.14 1035.22 1035.30 1035.42 1035.46 1035.50 1035.54 1035.62 1035.66 1035.62 1035.58 1035.58 1035.58 1035.62 1035.58 1035.62 1035.54 1035.38 1035.26 1034.94 1035.06 1034.82 1034.42 1034.54 1033.62 1033.38 1033.02 1032.30 1031.10 1030.54 1029.78 1029.78 1029.94 1030.02
1033.26 1033.30 1033.42 1033.30 1033.42 1033.70 1033.94 1034.10 1034.14 1034.22 1034.38 1034.54 1034.70 1034.74 1034.78 1034.86 1034.90 1034.98 1035.06 1035.10 1035.14 1035.26 1035.34 1035.42 1035.46 1035.50 1035.58 1035.58 1035.50 1035.50 1035.46 1035.50 1035.58 1035.50 1035.54 1035.46 1035.34 1035.10 1034.94 1034.82 1034.62 1034.66 1034.26 1034.54 1033.42 1033.10 1031.94 1031.22 1029.90 1029.58 1029.86 1030.22
1033.10 1033.18 1033.26 1033.42 1033.46 1033.66 1033.70 1033.86 1034.10 1034.26 1034.38 1034.50 1034.54 1034.54 1034.62 1034.66 1034.74 1034.78 1034.86 1034.94 1034.98 1035.06 1035.22 1035.30 1035.38 1035.42 1035.46 1035.50 1035.42 1035.42 1035.38 1035.38 1035.46 1035.38 1035.46 1035.34 1035.38 1035.18 1035.06 1034.50 1034.82 1034.58 1034.74 1034.38 1033.70 1033.62 1032.46 1032.78 1031.74 1031.66 1029.58 1031.10
1032.98 1033.14 1033.34 1033.46 1033.66 1033.82 1033.94 1033.98 1034.02 1034.10 1034.10 1034.10 1034.14 1034.18 1034.34 1034.38 1034.50 1034.58 1034.62 1034.74 1034.78 1034.86 1035.06 1035.18 1035.26 1035.34 1035.38 1035.42 1035.38 1035.30 1035.34 1035.34 1035.38 1035.46 1035.42 1035.34 1035.34 1035.30 1035.02 1034.98 1034.58 1034.86 1034.54 1034.74 1034.30 1034.54 1033.58 1033.10 1032.10 1032.22 1032.22 1031.86
1032.70 1032.66 1032.78 1033.10 1033.26 1033.34 1033.42 1033.34 1033.46 1033.38 1033.26 1033.46 1033.70 1033.70 1033.82 1034.10 1034.22 1034.30 1034.42 1034.50 1034.58 1034.66 1034.82 1035.02 1035.14 1035.22 1035.26 1035.30 1035.26 1035.18 1035.26 1035.30 1035.34 1035.38 1035.42 1035.26 1035.30 1035.26 1035.14 1035.02 1034.90 1034.98 1034.58 1034.66 1034.74 1034.54 1034.38 1034.10 1034.26 1033.82 1033.66 1032.82
1032.34 1032.42 1032.38 1032.30 1031.98 1031.74 1031.90 1032.02 1032.18 1032.38 1032.58 1032.82 1033.06 1033.38 1033.62 1033.74 1033.98 1034.06 1034.14 1034.22 1034.38 1034.50 1034.62 1034.78 1034.94 1035.06 1035.14 1035.14 1035.18 1035.02 1035.18 1035.22 1035.22 1035.26 1035.34 1035.22 1035.26 1035.22 1035.10 1035.06 1035.26 1035.02 1034.94 1034.70 1034.74 1034.62 1034.74 1034.58 1034.42 1034.30 1034.30 1034.66
Wind_Speed
18 17 17 17 17 17 16 15 15 15 16 17 17 17 17 17 17 17 17 17 17 17 17 17 16 16 16 16 17 17 18 17 17 17 17 17 17 17 17 17 18 18 18 17 17 17 17 16 17 16 13 5
17 18 18 18 17 17 17 17 17 17 18 18 18 18 18 18 18 18 18 18 18 18 18 17 17 16 16 16 17 17 17 17 17 17 17 17 17 17 17 18 18 18 18 18 18 18 17 17 16 14 12 6
14 19 19 19 19 19 18 18 18 18 18 18 18 18 17 17 17 17 18 17 18 18 18 18 16 17 16 16 17 17 17 17 17 17 17 17 17 17 18 18 18 18 18 18 18 19 18 17 14 14 8 6
10 15 19 19 19 19 19 19 18 18 18 17 17 17 16 16 13 13 13 17 13 16 17 17 16 17 16 16 17 17 17 17 17 17 17 17 17 17 18 18 18 18 18 18 18 19 19 16 13 7 5 7
9 12 15 14 18 19 19 18 18 17 16 14 14 13 14 12 10 9 8 9 9 13 12 16 16 17 17 17 17 17 17 17 17 17 17 17 17 17 17 16 15 16 17 17 18 18 17 16 7 6 6 6
7 7 12 10 9 10 11 13 13 12 10 11 9 12 10 8 7 7 7 8 9 8 10 12 16 16 16 17 17 17 17 17 17 17 17 17 17 17 16 15 7 8 11 14 16 15 15 8 6 7 7 6
7 9 7 9 9 8 11 11 12 9 10 8 9 8 8 7 7 7 7 8 9 7 11 12 15 16 16 16 16 16 15 16 16 16 16 17 16 16 16 8 6 6 6 6 12 11 7 5 6 6 7 6
7 7 7 7 7 7 7 8 7 9 8 8 8 7 7 6 6 7 6 8 10 9 7 8 12 14 13 14 15 17 9 12 13 14 14 14 14 9 7 6 6 6 6 6 6 6 5 5 6 6 6 5
7 6 7 6 6 7 6 6 6 7 7 7 7 7 6 6 6 6 6 6 6 6 6 7 7 7 8 7 8 12 8 7 8 8 7 7 8 6 6 6 6 6 6 6 6 6 6 6 6 5 5 5
7 7 6 6 6 6 6 6 6 6 6 6 7 6 5 5 6 6 6 6 6 6 6 6 6 6 6 6 7 7 6 6 7 7 6 6 6 6 6 6 5 5 5 6 5 5 6 6 6 5 5 5
6 6 6 6 5 6 5 5 6 6 5 6 6 5 5 5 5 5 5 5 6 6 5 6 5 6 6 6 6 6 6 6 6 6 6 6 6 5 5 6 5 5 5 5 6 5 5 5 6 6 6 5
6 5 6 6 6 6 6 5 6 5 5 5 6 6 5 6 5 5 5 5 5 5 5 5 5 5 5 5 6 6 6 6 6 6 6 6 6 6 6 5 6 5 5 5 5 6 5 5 5 6 6 6
5 5 6 5 6 6 6 5 5 5 4 5 5 6 6 6 5 5 5 5 5 4 5 5 5 5 5 5 5 5 5 6 6 6 6 6 6 6 6 6 6 6 6 5 5 5 6 6 5 5 5 6
5 5 6 5 5 5 5 5 5 5 5 4 4 5 6 6 5 5 5 5 4 4 5 5 5 5 5 5 5 6 6 6 5 6 5 6 6 6 6 6 6 7 6 6 6 6 6 6 6 5 5 6
6 5 6 5 4 5 5 4 4 5 5 5 5 5 5 6 5 5 4 4 4 4 4 4 4 5 4 5 6 5 6 6 6 6 5 6 6 6 5 6 6 6 6 6 6 6 7 7 6 6 6 6
5 5 5 5 4 4 4 4 4 4 4 4 4 4 5 5 5 5 4 4 3 4 4 4 4 4 5 5 5 5 5 6 5 5 5 6 5 6 5 6 5 5 5 6 6 6 7 7 7 7 7 7
5 4 4 4 4 4 4 4 4 4 4 4 4 4 5 5 5 4 4 4 4 4 4 4 4 4 5 4 4 5 6 6 5 5 6 6 6 5 5 6 6 5 5 5 6 6 6 6 7 7 7 7
4 4 4 4 4 4 3 3 4 4 4 4 4 4 5 5 5 4 4 3 4 4 4 4 4 4 4 4 4 4 5 5 5 5 6 6 6 6 6 6 6 6 6 6 6 6 6 6 7 7 7 7
5 4 4 4 3 3 4 4 4 3 4 3 3 4 4 5 5 4 4 4 4 4 4 4 4 4 4 4 4 4 5 5 5 5 6 6 6 6 6 6 6 7 7 7 7 7 6 7 7 6 7 7
4 4 4 4 4 3 3 3 3 3 4 4 3 3 4 4 5 4 4 4 4 4 4 4 4 4 4 4 4 4 4 5 5 5 5 6 6 7 7 7 6 6 7 7 8 8 7 7 7 7 7 7
4 4 4 4 4 3 3 3 3 3 3 3 4 3 4 4 4 4 4 4 3 4 4 3 3 3 3 4 4 4 4 4 5 5 5 6 6 6 6 7 8 7 6 8 8 8 8 8 7 7 7 7
4 4 4 4 4 4 3 3 3 3 4 4 3 3 3 3 4 4 4 4 3 3 3 3 3 3 4 3 4 4 4 5 5 4 6 6 5 6 6 6 8 8 8 7 8 8 8 8 7 7 7 6
4 4 3 3 3 3 3 3 3 3 4 3 3 3 4 3 3 4 4 4 3 3 3 3 3 3 3 3 3 4 4 4 5 5 6 6 6 5 5 6 6 7 9 8 8 8 8 8 9 8 6 5
4 3 3 3 2 2 2 2 3 3 3 3 3 3 3 3 3 3 3 3 3 3 3 2 2 3 3 3 3 4 5 5 5 6 7 7 7 7 5 5 5 7 9 8 8 7 6 7 9 8 5 3
4 3 2 1 2 2 3 3 3 3 3 3 3 3 3 3 3 4 3 3 3 3 3 2 2 2 2 2 3 3 3 4 4 5 5 5 5 6 7 6 6 8 8 8 7 4 6 5 7 5 2 4
5 3 3 4 5 3 4 4 4 4 4 4 3 4 4 3 3 4 3 3 3 3 3 2 2 2 2 2 2 2 2 2 3 3 4 5 3 4 5 5 7 7 9 5 8 10 9 4 2 4 4 1
6 4 4 3 4 5 3 2 2 3 4 4 3 4 4 4 4 4 3 3 3 3 3 2 2 1 1 2 2 2 2 1 3 2 4 4 4 5 3 2 4 6 8 4 7 6 6 5 8 2 2 2
6 4 4 2 3 3 3 3 4 4 3 4 4 4 4 4 4 5 4 4 3 3 3 3 2 1 0 1 1 1 2 2 3 3 4 4 4 4 5 4 3 5 5 5 7 4 4 5 4 6 1 8
6 5 4 3 3 3 2 1 3 3 4 5 4 4 4 5 5 5 4 4 4 4 4 3 3 2 1 0 1 0 1 1 2 2 3 4 3 5 5 5 4 5 4 4 5 1 4 2 1 1 6 11
7 8 7 7 6 6 5 5 6 7 8 7 6 6 4 4 5 5 5 4 4 4 4 4 4 3 2 2 1 1 1 0 1 1 3 3 2 4 3 4 5 4 4 2 4 3 2 3 3 6 7 6
8 8 8 9 9 8 8 7 7 5 5 5 5 4 5 5 4 5 6 5 5 4 4 4 4 4 3 2 2 2 2 1 1 1 2 2 2 3 3 4 3 5 4 3 2 1 3 4 5 4 5 3
Wind_Direction
88 88 86 82 79 78 77 76 74 71 68 66 64 61 59 57 54 52 50 47 45 43 39 33 34 33 32 32 28 27 25 24 23 23 21 19 20 18 17 16 15 13 12 12 14 15 17 17 17 17 18 11
79 80 79 78 78 77 76 75 73 71 68 66 62 60 56 54 50 50 47 45 44 42 39 34 30 32 32 29 28 27 25 24 23 24 25 25 26 24 21 19 18 14 11 10 11 12 12 13 13 14 16 6
70 74 74 75 75 73 72 71 69 68 66 63 61 58 55 52 49 46 45 41 41 40 38 34 29 29 31 30 29 27 25 23 24 24 24 25 25 24 23 20 17 15 11 9 9 8 10 10 13 12 11 7
49 62 70 71 70 69 68 66 63 61 61 61 57 56 54 54 49 44 41 42 38 36 36 34 31 29 29 31 31 28 25 22 22 22 23 23 24 24 23 21 17 14 11 10 8 7 7 7 9 13 4 358
59 61 59 59 64 64 64 63 63 60 56 53 54 54 52 53 49 46 42 40 37 37 33 33 33 30 28 30 31 30 27 22 21 20 20 20 21 22 22 21 18 14 10 8 8 7 6 5 6 3 359 354
63 63 64 61 61 61 60 58 57 56 55 55 52 52 51 47 46 40 42 41 36 36 31 32 34 33 30 30 31 30 29 25 23 21 19 18 19 19 19 19 18 10 6 6 7 7 6 6 0 356 354 352
70 66 66 64 61 61 60 60 58 57 55 52 53 51 52 51 48 42 42 40 40 40 36 35 33 33 32 29 30 30 28 27 24 23 20 18 19 18 16 16 13 7 359 360 2 3 7 3 358 350 353 351
67 63 65 63 59 61 60 58 57 56 54 53 51 51 52 53 51 48 49 41 39 36 32 29 30 29 28 26 25 24 23 21 22 21 20 18 18 18 16 12 8 2 1 359 355 356 360 359 354 350 347 351
70 73 73 67 64 64 62 62 60 58 56 53 51 51 56 52 53 49 46 40 35 35 31 30 26 23 24 20 20 19 20 15 9 13 11 10 13 14 10 8 7 1 360 359 353 352 351 350 350 347 345 342
81 76 76 73 71 74 66 65 65 59 58 54 49 52 54 55 52 48 46 40 37 36 32 33 31 27 25 22 21 19 17 15 11 7 9 9 9 5 3 3 1 360 359 353 351 350 348 346 346 345 342 340
79 74 81 84 82 83 74 70 70 65 60 58 55 53 55 54 52 50 51 44 42 39 33 37 29 27 22 22 21 15 16 13 10 7 6 4 2 357 357 355 353 354 355 352 347 345 345 345 341 341 340 337
78 77 77 79 81 77 76 76 69 67 63 60 56 50 50 53 50 47 46 45 43 39 41 42 34 30 28 26 22 13 13 10 7 4 3 357 356 355 353 350 346 348 350 347 346 341 342 340 339 339 334 330
82 82 78 78 77 75 78 74 73 72 70 62 58 52 50 50 50 49 47 43 39 32 41 36 33 31 31 28 24 15 14 15 4 5 360 358 353 353 349 347 347 345 343 342 345 340 336 336 332 330 326 324
88 83 85 77 77 84 82 79 82 77 69 66 62 57 49 49 57 50 47 47 39 41 38 37 33 32 27 24 19 17 13 10 8 2 357 355 352 349 347 348 345 341 335 340 339 339 334 330 328 324 319 318
93 94 89 88 87 86 82 85 84 76 74 67 65 65 55 55 55 57 51 47 44 44 43 41 36 34 26 25 19 16 12 5 6 0 359 353 351 347 343 344 340 335 334 332 334 335 333 326 325 318 314 312
97 95 96 96 93 88 92 94 87 85 79 76 72 67 64 60 55 55 52 46 42 49 44 46 41 36 31 24 15 15 12 3 4 360 353 349 350 337 340 337 336 336 332 328 329 329 327 323 321 315 313 310
100 99 97 101 97 96 99 97 96 90 88 81 74 71 66 59 59 55 48 45 46 48 54 54 49 40 36 25 16 11 10 2 2 359 356 352 350 341 346 338 337 335 327 326 325 325 319 318 313 309 309 303
111 110 111 105 105 105 102 97 98 95 90 88 81 77 68 62 58 51 48 43 48 58 59 59 54 42 32 24 15 10 9 9 8 3 359 353 351 349 348 342 339 335 334 329 325 321 317 309 305 305 302 298
121 122 117 119 115 113 108 106 105 104 103 99 94 87 76 70 67 57 50 44 55 61 61 58 52 41 33 21 15 18 11 12 9 8 4 355 351 344 345 340 335 335 330 328 326 321 317 310 303 298 293 291
131 130 128 124 118 108 109 108 107 109 106 106 100 91 85 80 76 67 57 55 62 71 63 58 49 41 27 21 22 19 16 13 13 9 3 356 354 347 342 340 334 335 328 326 322 318 311 302 303 299 290 286
145 139 135 130 123 121 119 119 121 119 118 113 107 97 92 90 86 75 68 63 67 81 70 62 57 41 28 25 23 18 17 17 12 13 2 355 357 353 335 334 332 334 330 325 317 311 307 303 303 293 287 284
153 153 141 139 142 131 126 124 123 129 127 124 119 119 108 109 100 89 81 76 76 84 81 73 62 47 34 30 25 21 18 16 9 16 6 354 352 354 339 337 339 334 330 324 315 308 306 306 298 287 284 289
154 147 139 136 136 130 126 121 121 133 130 133 132 124 130 121 110 104 95 93 98 91 82 80 66 54 38 33 28 23 16 16 13 16 6 357 346 348 348 337 334 333 324 320 309 304 307 308 297 286 288 299
157 158 158 147 135 121 126 127 126 124 128 132 125 128 127 120 118 118 108 107 108 102 93 82 74 62 47 34 31 19 19 14 11 10 0 1 351 342 343 335 337 338 329 313 290 294 308 301 289 288 293 303
171 162 148 155 199 181 169 163 151 144 143 137 135 143 141 137 132 132 126 118 123 114 102 101 102 90 57 48 38 27 22 25 14 15 3 353 351 345 346 340 344 342 332 322 322 303 302 311 292 297 343 110
186 187 183 172 183 170 175 180 173 169 173 166 158 164 162 156 146 144 140 136 136 133 124 111 111 93 68 54 31 45 25 45 19 24 8 353 349 348 351 333 342 351 343 357 348 335 329 332 342 78 94 80
198 200 196 181 164 167 158 189 184 172 174 170 166 172 170 169 161 155 151 153 146 140 140 129 112 107 85 33 24 5 14 46 17 24 8 5 0 336 333 312 337 8 2 337 322 298 290 334 337 289 348 344
208 196 175 159 143 156 157 165 175 176 169 178 174 177 176 181 174 169 162 158 155 146 152 147 147 144 164 19 10 356 349 3 5 8 4 1 1 345 335 346 340 6 358 358 338 355 346 310 315 314 70 345
189 179 157 153 121 132 161 187 183 187 206 201 203 192 187 193 177 179 170 169 169 157 163 164 163 180 182 206 336 264 331 345 5 353 6 348 358 357 334 332 333 344 356 1 359 7 335 326 267 260 334 332
188 191 177 170 173 185 193 204 191 203 202 193 199 202 189 184 188 188 180 176 172 176 166 179 180 183 191 203 273 230 206 300 337 343 352 347 354 336 332 324 323 329 340 23 348 341 341 288 294 316 315 332
194 199 197 196 197 192 192 199 213 201 196 187 187 178 188 194 193 194 189 184 181 181 192 182 192 193 199 210 220 258 183 278 307 314 337 326 340 318 323 319 311 317 321 339 307 351 316 308 305 303 317 292